Change the Weather History Date:

Sunday, May 12, 2013

  Actual Average Record
Temperature  
Mean Temperature 65 °F 64 °F  
Max Temperature 80 °F 77 °F 93 °F (1984)
Min Temperature 49 °F 51 °F 31 °F (1918)
Degree Days  
Heating Degree Days 0 3  
Month to date heating degree days 61 45  
Since 1 July heating degree days 3892 4149  
Cooling Degree Days 0 2  
Month to date cooling degree days 0 17  
Year to date cooling degree days 8 24  
Growing Degree Days 14 (Base 50)    
Moisture  
Dew Point 31 °F    
Average Humidity 35    
Maximum Humidity 56    
Minimum Humidity 14    
Precipitation  
Precipitation T in 0.02 in 1.15 in (1929)
Month to date precipitation T 0.20  
Year to date precipitation 0.60 2.24  
Snow  
Snow 0.00 in - - ()
Month to date snowfall 0.0  
Since 1 July snowfall 3.5  
Snow Depth 0.00 in    
Sea Level Pressure  
Sea Level Pressure 30.14 in    
Wind  
Wind Speed 5 mph (NNE)    
Max Wind Speed 22 mph    
Max Gust Speed 40 mph    
Visibility 10 miles    
Events Rain    
T = Trace of Precipitation, MM = Missing Value Source: NWS Daily Summary

Daily Weather History Graph

Daily Weather History Graph

Search for Another Location

Airport or City:

Trip Planner

Search our weather history database for the weather conditions in past years. The results will help you decide how hot, cold, wet, or windy it might be!

Date:

Astronomy

May. 12, 2013 Rise Set
Actual Time 6:04 AM MDT 8:01 PM MDT
Civil Twilight 5:37 AM MDT 8:29 PM MDT
Nautical Twilight 5:03 AM MDT 9:03 PM MDT
Astronomical Twilight 4:27 AM MDT 9:39 PM MDT
Moon 8:03 AM MDT (5/12) 10:29 PM MDT (5/12)
Length of Visible Light 14h 52m
Length of Day
13h 56m
Waxing Crescent, 7% of the Moon is Illuminated
May 12
Waxing Crescent
May 17
First Quarter
May 24
Full
May 31
Last Quarter
Jun 8
New

Hourly Weather History & Observations

Time (MDT) Temp. Dew Point Humidity Pressure Visibility Wind Dir Wind Speed Gust Speed Precip Events Conditions
12:52 AM 55.9 °F 35.1 °F 45% 30.22 in 10.0 mi ENE 3.5 mph - N/A   Clear
1:52 AM 55.0 °F 36.0 °F 49% 30.22 in 10.0 mi NW 4.6 mph - N/A   Clear
2:52 AM 54.0 °F 34.0 °F 47% 30.21 in 10.0 mi NNE 5.8 mph - N/A   Clear
3:52 AM 53.1 °F 34.0 °F 48% 30.22 in 10.0 mi North 5.8 mph - N/A   Clear
4:52 AM 52.0 °F 32.0 °F 47% 30.23 in 10.0 mi North 4.6 mph - N/A   Clear
5:52 AM 48.9 °F 33.1 °F 54% 30.24 in 10.0 mi NNE 4.6 mph - N/A   Clear
6:52 AM 50.0 °F 33.1 °F 52% 30.26 in 10.0 mi NNE 5.8 mph - N/A   Clear
7:52 AM 54.0 °F 34.0 °F 47% 30.25 in 10.0 mi Calm Calm - N/A   Partly Cloudy
8:52 AM 57.9 °F 34.0 °F 41% 30.25 in 10.0 mi Calm Calm - N/A   Partly Cloudy
9:52 AM 63.0 °F 33.1 °F 33% 30.23 in 10.0 mi Calm Calm - N/A   Scattered Clouds
10:52 AM 66.0 °F 32.0 °F 28% 30.21 in 10.0 mi SW 5.8 mph - N/A   Scattered Clouds
11:52 AM 68.0 °F 32.0 °F 26% 30.17 in 10.0 mi West 5.8 mph - N/A   Scattered Clouds
12:52 PM 71.1 °F 30.9 °F 23% 30.13 in 10.0 mi West 6.9 mph - N/A   Scattered Clouds
1:52 PM 73.9 °F 30.0 °F 20% 30.09 in 10.0 mi Variable 3.5 mph - N/A   Scattered Clouds
2:52 PM 77.0 °F 27.0 °F 16% 30.06 in 10.0 mi NW 8.1 mph - N/A   Scattered Clouds
3:52 PM 77.0 °F 25.0 °F 15% 30.03 in 10.0 mi Calm Calm - N/A   Scattered Clouds
4:52 PM 75.9 °F 28.9 °F 18% 30.02 in 10.0 mi SE 16.1 mph 19.6 mph N/A   Mostly Cloudy
5:52 PM 73.9 °F 28.0 °F 18% 30.04 in 10.0 mi East 13.8 mph 18.4 mph 0.00 in Rain Light Rain
6:52 PM 73.9 °F 28.9 °F 19% 30.03 in 10.0 mi Calm Calm - 0.00 in   Scattered Clouds
7:52 PM 73.0 °F 28.0 °F 19% 30.02 in 10.0 mi Calm Calm - N/A   Scattered Clouds
8:52 PM 70.0 °F 28.9 °F 22% 30.04 in 10.0 mi SE 4.6 mph - N/A   Scattered Clouds
9:52 PM 66.0 °F 30.0 °F 26% 30.05 in 10.0 mi Calm Calm - N/A   Partly Cloudy
10:52 PM 63.0 °F 30.0 °F 29% 30.07 in 10.0 mi South 10.4 mph 17.3 mph N/A   Partly Cloudy
11:52 PM 62.1 °F 28.0 °F 28% 30.09 in 10.0 mi SE 4.6 mph - N/A   Partly Cloudy